RYR4MP LEGE-EPKK

Flight info

Callsign RYR4MP
Flight time 2h 18m
Altitude 26000
Route BGR L110 DIBER/N0437F380 DCT NETUP DCT STP DCT RAPED DCT PIGOS DCT EKSID DCT NOSTA DCT NOPMU DCT LAGEN DCT ROBAS DCT NOBMI DCT MALUG/N0425F330 DCT LEDVA DCT NETIR
Aircraft B738/M-SADE3FGIJ1LRWY/SB1

Departure

Time 2026-04-25 17:21
Airport Girona-Costa Brava Airport (LEGE)

Arrival

Time 2026-04-25 19:39
Airport Kraków John Paul II International Airport (EPKK)
Time Latitude Longitude Altitude Speed Heading
2026-04-25 16:36 41.89894 2.76497 420 ft 0 kts 105°
2026-04-25 17:13 41.89896 2.76487 409 ft 4 kts 107°
2026-04-25 17:13 41.89901 2.76466 415 ft 4 kts 88°
2026-04-25 17:13 41.89890 2.76427 411 ft 4 kts 52°
2026-04-25 17:13 41.89871 2.76404 411 ft 4 kts 25°
2026-04-25 17:14 41.89846 2.76393 410 ft 4 kts
2026-04-25 17:14 41.89828 2.76389 413 ft 0 kts 16°
2026-04-25 17:16 41.89829 2.76390 413 ft 1 kts 15°
2026-04-25 17:16 41.89858 2.76392 416 ft 8 kts 349°
2026-04-25 17:16 41.89896 2.76314 419 ft 13 kts 286°
2026-04-25 17:17 41.89954 2.76234 428 ft 14 kts 12°
2026-04-25 17:17 41.90045 2.76268 424 ft 14 kts 14°
2026-04-25 17:17 41.90147 2.76305 425 ft 17 kts 15°
2026-04-25 17:17 41.90271 2.76353 436 ft 20 kts 14°
2026-04-25 17:18 41.90414 2.76407 435 ft 23 kts 17°
2026-04-25 17:18 41.90570 2.76467 433 ft 23 kts 16°
2026-04-25 17:18 41.90721 2.76524 450 ft 22 kts 15°
2026-04-25 17:18 41.90868 2.76579 458 ft 22 kts 16°
2026-04-25 17:19 41.91010 2.76634 462 ft 21 kts 16°
2026-04-25 17:19 41.91157 2.76690 464 ft 22 kts 14°
2026-04-25 17:19 41.91308 2.76743 465 ft 22 kts 12°
2026-04-25 17:19 41.91441 2.76739 468 ft 16 kts 330°
2026-04-25 17:20 41.91531 2.76664 475 ft 15 kts 313°
2026-04-25 17:20 41.91485 2.76582 477 ft 6 kts 195°
2026-04-25 17:20 41.91441 2.76566 477 ft 8 kts 196°
2026-04-25 17:20 41.91229 2.76486 474 ft 68 kts 195°
2026-04-25 17:21 41.90532 2.76224 455 ft 137 kts 196°
2026-04-25 17:21 41.89494 2.75833 785 ft 164 kts 196°
2026-04-25 17:21 41.88428 2.75413 1757 ft 157 kts 197°
2026-04-25 17:21 41.87314 2.74930 2212 ft 183 kts 197°
2026-04-25 17:22 41.85995 2.74423 2630 ft 206 kts 196°
2026-04-25 17:22 41.85055 2.74080 2914 ft 216 kts 196°
2026-04-25 17:22 41.83063 2.73411 3607 ft 228 kts 186°
2026-04-25 17:22 41.81523 2.73861 4257 ft 232 kts 144°
2026-04-25 17:23 41.80555 2.75535 4963 ft 231 kts 104°
2026-04-25 17:23 41.80530 2.77662 5654 ft 229 kts 77°
2026-04-25 17:23 41.80962 2.79749 6244 ft 241 kts 67°
2026-04-25 17:23 41.81666 2.81917 6501 ft 266 kts 64°
2026-04-25 17:24 41.82473 2.84207 7088 ft 275 kts 63°
2026-04-25 17:24 41.83291 2.86531 7921 ft 274 kts 63°
2026-04-25 17:24 41.84093 2.88836 8646 ft 279 kts 63°
2026-04-25 17:24 41.84912 2.91225 9398 ft 283 kts 63°
2026-04-25 17:25 41.85731 2.93638 10175 ft 285 kts 63°
2026-04-25 17:25 41.86567 2.96116 10577 ft 301 kts 64°
2026-04-25 17:25 41.87461 2.98775 10759 ft 323 kts 64°
2026-04-25 17:25 41.88399 3.01582 11214 ft 334 kts 64°
2026-04-25 17:26 41.89353 3.04451 11905 ft 336 kts 64°
2026-04-25 17:26 41.90307 3.07330 12604 ft 340 kts 64°
2026-04-25 17:26 41.91275 3.10246 13254 ft 344 kts 64°
2026-04-25 17:26 41.92257 3.13209 13918 ft 348 kts 64°
2026-04-25 17:27 41.93244 3.16189 14534 ft 351 kts 64°
2026-04-25 17:27 41.94240 3.19205 15118 ft 355 kts 65°
2026-04-25 17:27 41.95031 3.22331 15706 ft 360 kts 76°
2026-04-25 17:27 41.95189 3.23444 15909 ft 361 kts 79°
2026-04-25 17:28 41.95800 3.28996 16883 ft 367 kts 80°
2026-04-25 17:28 41.96164 3.32407 17444 ft 370 kts 80°
2026-04-25 17:28 41.96536 3.35853 18017 ft 374 kts 80°
2026-04-25 17:28 41.96916 3.39326 18563 ft 377 kts 80°
2026-04-25 17:29 41.97306 3.42835 19041 ft 380 kts 80°
2026-04-25 17:29 41.97694 3.46313 19535 ft 383 kts 80°
2026-04-25 17:29 41.98091 3.49864 20022 ft 385 kts 80°
2026-04-25 17:29 41.98493 3.53453 20492 ft 389 kts 80°
2026-04-25 17:30 41.98897 3.57067 20968 ft 391 kts 80°
2026-04-25 17:30 41.99296 3.60653 21436 ft 394 kts 80°
2026-04-25 17:30 41.99703 3.64312 21893 ft 397 kts 80°
2026-04-25 17:30 42.00112 3.67997 22341 ft 399 kts 80°
2026-04-25 17:31 42.00522 3.71709 22780 ft 402 kts 80°
2026-04-25 17:31 42.00934 3.75445 23228 ft 405 kts 80°
2026-04-25 17:31 42.01346 3.79204 23647 ft 408 kts 80°
2026-04-25 17:31 42.01762 3.82998 23995 ft 410 kts 80°
2026-04-25 17:32 42.02178 3.86810 24357 ft 412 kts 80°
2026-04-25 17:32 42.02589 3.90595 24724 ft 414 kts 80°
2026-04-25 17:32 42.03005 3.94432 25070 ft 416 kts 80°
2026-04-25 17:32 42.03423 3.98296 25404 ft 418 kts 80°
2026-04-25 17:33 42.03842 4.02182 25731 ft 420 kts 80°
2026-04-25 17:33 42.04257 4.06047 26059 ft 422 kts 80°
2026-04-25 17:33 42.04677 4.09975 26380 ft 424 kts 80°
2026-04-25 17:33 42.05098 4.13918 26696 ft 426 kts 80°
2026-04-25 17:34 42.05519 4.17887 27004 ft 428 kts 80°
2026-04-25 17:34 42.05936 4.21820 27297 ft 430 kts 80°
2026-04-25 17:34 42.06358 4.25818 27582 ft 432 kts 80°
2026-04-25 17:34 42.06782 4.29837 27879 ft 434 kts 80°
2026-04-25 17:35 42.07205 4.33865 28166 ft 435 kts 80°
2026-04-25 17:35 42.07723 4.37898 28432 ft 436 kts 73°
2026-04-25 17:35 42.08776 4.41657 28665 ft 434 kts 60°
2026-04-25 17:35 42.10373 4.45105 28938 ft 432 kts 50°
2026-04-25 17:36 42.12379 4.48125 29193 ft 432 kts 45°
2026-04-25 17:36 42.14451 4.51075 29440 ft 434 kts 45°
2026-04-25 17:36 42.16529 4.54040 29670 ft 436 kts 45°
2026-04-25 17:36 42.18606 4.57027 29913 ft 438 kts 45°
2026-04-25 17:37 42.20688 4.60041 30146 ft 439 kts 45°
2026-04-25 17:37 42.22775 4.63084 30330 ft 441 kts 45°
2026-04-25 17:37 42.24832 4.66095 30514 ft 442 kts 45°
2026-04-25 17:37 42.26923 4.69164 30688 ft 444 kts 45°
2026-04-25 17:38 42.29018 4.72243 30851 ft 445 kts 46°
2026-04-25 17:38 42.29728 4.73289 30905 ft 446 kts 46°
2026-04-25 17:38 42.33226 4.78442 31170 ft 449 kts 46°
2026-04-25 17:38 42.35341 4.81562 31365 ft 449 kts 46°
2026-04-25 17:39 42.37427 4.84642 31599 ft 448 kts 46°
2026-04-25 17:39 42.39532 4.87753 31841 ft 448 kts 46°
2026-04-25 17:39 42.41634 4.90864 32048 ft 448 kts 46°
2026-04-25 17:39 42.43742 4.93984 32242 ft 448 kts 46°
2026-04-25 17:40 42.45845 4.97102 32453 ft 448 kts 46°
2026-04-25 17:40 42.47944 5.00217 32669 ft 447 kts 46°
2026-04-25 17:40 42.50024 5.03307 32850 ft 447 kts 46°
2026-04-25 17:40 42.52124 5.06432 33028 ft 448 kts 46°
2026-04-25 17:41 42.54223 5.09557 33228 ft 448 kts 46°
2026-04-25 17:41 42.56326 5.12693 33403 ft 448 kts 46°
2026-04-25 17:41 42.58399 5.15785 33563 ft 448 kts 46°
2026-04-25 17:41 42.60501 5.18925 33746 ft 448 kts 46°
2026-04-25 17:42 42.62595 5.22055 33946 ft 448 kts 46°
2026-04-25 17:42 42.64690 5.25192 34101 ft 448 kts 46°
2026-04-25 17:42 42.66789 5.28337 34261 ft 447 kts 46°
2026-04-25 17:42 42.68884 5.31480 34420 ft 447 kts 46°
2026-04-25 17:43 42.70975 5.34618 34540 ft 448 kts 46°
2026-04-25 17:43 42.73044 5.37728 34653 ft 448 kts 46°
2026-04-25 17:43 42.75140 5.40881 34787 ft 448 kts 46°
2026-04-25 17:43 42.77231 5.44033 34937 ft 448 kts 46°
2026-04-25 17:44 42.79320 5.47184 35085 ft 447 kts 46°
2026-04-25 17:44 42.81405 5.50334 35219 ft 447 kts 46°
2026-04-25 17:44 42.83462 5.53444 35338 ft 447 kts 46°
2026-04-25 17:44 42.85557 5.56614 35456 ft 447 kts 47°
2026-04-25 17:45 42.87646 5.59779 35590 ft 447 kts 46°
2026-04-25 17:45 42.88321 5.60803 35635 ft 447 kts 46°
2026-04-25 17:45 42.91782 5.66056 35839 ft 447 kts 47°
2026-04-25 17:45 42.93864 5.69219 35941 ft 447 kts 47°
2026-04-25 17:46 42.95947 5.72387 36066 ft 447 kts 47°
2026-04-25 17:46 42.98018 5.75542 36174 ft 446 kts 47°
2026-04-25 17:46 43.01674 5.82342 36364 ft 448 kts 62°
2026-04-25 17:47 43.03919 5.90296 36579 ft 449 kts 70°
2026-04-25 17:47 43.05954 5.98362 36777 ft 448 kts 70°
2026-04-25 17:48 43.08022 6.06408 36976 ft 448 kts 69°
2026-04-25 17:48 43.09066 6.10426 37081 ft 448 kts 69°
2026-04-25 17:48 43.10109 6.14438 37191 ft 447 kts 69°
2026-04-25 17:49 43.11138 6.18392 37307 ft 446 kts 69°
2026-04-25 17:49 43.12178 6.22394 37414 ft 446 kts 69°
2026-04-25 17:49 43.13217 6.26405 37528 ft 445 kts 69°
2026-04-25 17:49 43.14250 6.30397 37668 ft 443 kts 70°
2026-04-25 17:50 43.15279 6.34385 37767 ft 443 kts 69°
2026-04-25 17:50 43.17319 6.42307 37979 ft 441 kts 70°
2026-04-25 17:51 43.19354 6.50236 38053 ft 440 kts 70°
2026-04-25 17:51 43.21388 6.58112 38056 ft 440 kts 67°
2026-04-25 17:52 43.24468 6.65316 38070 ft 438 kts 52°
2026-04-25 17:52 43.28078 6.71926 38052 ft 439 kts 52°
2026-04-25 17:53 43.31679 6.78638 38071 ft 439 kts 52°
2026-04-25 17:53 43.35279 6.85457 38070 ft 440 kts 53°
2026-04-25 17:54 43.38872 6.92284 38079 ft 441 kts 53°
2026-04-25 17:54 43.42438 6.99091 38083 ft 442 kts 53°
2026-04-25 17:55 43.46034 7.05971 38081 ft 443 kts 53°
2026-04-25 17:55 43.49027 7.11709 38076 ft 444 kts 53°
2026-04-25 17:56 43.52633 7.18636 38076 ft 445 kts 53°
2026-04-25 17:56 43.56241 7.25585 38074 ft 446 kts 53°
2026-04-25 17:57 43.59857 7.32564 38077 ft 447 kts 53°
2026-04-25 17:57 43.63450 7.39513 38076 ft 448 kts 53°
2026-04-25 17:58 43.67082 7.46545 38078 ft 449 kts 53°
2026-04-25 17:58 43.70689 7.53543 38078 ft 449 kts 53°
2026-04-25 17:59 43.74322 7.60609 38083 ft 450 kts 53°
2026-04-25 17:59 43.77943 7.67692 38078 ft 451 kts 53°
2026-04-25 18:00 43.80956 7.73582 38080 ft 450 kts 50°
2026-04-25 18:00 43.83799 7.77745 38073 ft 447 kts 37°
2026-04-25 18:00 43.86261 7.80360 38087 ft 446 kts 34°
2026-04-25 18:01 43.91233 7.85525 38080 ft 446 kts 36°
2026-04-25 18:01 43.96108 7.90876 38065 ft 448 kts 40°
2026-04-25 18:02 44.00589 7.96826 38073 ft 448 kts 43°
2026-04-25 18:02 44.05023 8.02961 38081 ft 448 kts 43°
2026-04-25 18:03 44.09477 8.09051 38077 ft 448 kts 42°
2026-04-25 18:03 44.13926 8.15080 38077 ft 449 kts 42°
2026-04-25 18:04 44.18415 8.21161 38074 ft 449 kts 42°
2026-04-25 18:04 44.22888 8.27237 38079 ft 448 kts 42°
2026-04-25 18:05 44.27334 8.33294 38071 ft 448 kts 42°
2026-04-25 18:05 44.31760 8.39336 38079 ft 447 kts 42°
2026-04-25 18:06 44.36215 8.45431 38074 ft 447 kts 42°
2026-04-25 18:06 44.40648 8.51542 38075 ft 447 kts 44°
2026-04-25 18:07 44.44500 8.57280 38080 ft 448 kts 45°
2026-04-25 18:07 44.48683 8.63692 38077 ft 448 kts 45°
2026-04-25 18:08 44.52904 8.70133 38064 ft 448 kts 45°
2026-04-25 18:08 44.57144 8.76570 38070 ft 449 kts 45°
2026-04-25 18:09 44.61366 8.82978 38082 ft 449 kts 45°
2026-04-25 18:09 44.65612 8.89435 38064 ft 450 kts 45°
2026-04-25 18:10 44.69866 8.95921 38060 ft 451 kts 45°
2026-04-25 18:10 44.74092 9.02379 38044 ft 451 kts 45°
2026-04-25 18:11 44.78350 9.08903 38035 ft 452 kts 45°
2026-04-25 18:11 44.82581 9.15401 38032 ft 452 kts 45°
2026-04-25 18:12 44.86838 9.21953 38021 ft 452 kts 45°
2026-04-25 18:12 44.91082 9.28503 38007 ft 452 kts 45°
2026-04-25 18:13 44.95327 9.35068 38004 ft 452 kts 45°
2026-04-25 18:13 44.99544 9.41606 38000 ft 451 kts 45°
2026-04-25 18:14 45.05888 9.51469 37996 ft 451 kts 45°
2026-04-25 18:14 45.10078 9.58003 37997 ft 451 kts 45°
2026-04-25 18:15 45.14288 9.64585 37988 ft 450 kts 45°
2026-04-25 18:15 45.18496 9.71178 37989 ft 450 kts 45°
2026-04-25 18:16 45.22604 9.77853 37990 ft 451 kts 47°
2026-04-25 18:17 45.28592 9.88163 37986 ft 451 kts 47°
2026-04-25 18:17 45.32575 9.95005 37981 ft 451 kts 47°
2026-04-25 18:18 45.36595 10.01886 37979 ft 451 kts 47°
2026-04-25 18:18 45.40576 10.08708 37968 ft 451 kts 47°
2026-04-25 18:19 45.44596 10.15614 37973 ft 451 kts 47°
2026-04-25 18:19 45.48579 10.22476 37966 ft 451 kts 47°
2026-04-25 18:20 45.52449 10.29159 37967 ft 452 kts 47°
2026-04-25 18:20 45.56456 10.36096 37996 ft 452 kts 47°
2026-04-25 18:21 45.60435 10.43002 37999 ft 452 kts 47°
2026-04-25 18:21 45.64434 10.49958 38014 ft 452 kts 47°
2026-04-25 18:22 45.68311 10.57056 38032 ft 453 kts 50°
2026-04-25 18:22 45.72037 10.64287 38034 ft 455 kts 50°
2026-04-25 18:23 45.75794 10.71589 38050 ft 456 kts 50°
2026-04-25 18:23 45.79580 10.78901 38060 ft 457 kts 50°
2026-04-25 18:24 45.83355 10.86179 38070 ft 456 kts 50°
2026-04-25 18:24 45.87149 10.93506 38060 ft 457 kts 50°
2026-04-25 18:25 45.90946 11.00861 38053 ft 457 kts 50°
2026-04-25 18:25 45.94729 11.08208 38069 ft 457 kts 50°
2026-04-25 18:26 45.98498 11.15547 38075 ft 459 kts 50°
2026-04-25 18:26 46.02289 11.22948 38079 ft 459 kts 50°
2026-04-25 18:27 46.06074 11.30360 38096 ft 458 kts 50°
2026-04-25 18:27 46.09643 11.37363 38095 ft 459 kts 50°
2026-04-25 18:28 46.12188 11.42371 38067 ft 459 kts 50°
2026-04-25 18:29 46.17844 11.53528 38020 ft 458 kts 50°
2026-04-25 18:30 46.25330 11.68361 38022 ft 456 kts 50°
2026-04-25 18:30 46.29041 11.75745 37998 ft 456 kts 50°
2026-04-25 18:31 46.32765 11.83176 38013 ft 456 kts 50°
2026-04-25 18:31 46.36487 11.90615 38017 ft 455 kts 51°
2026-04-25 18:32 46.40172 11.98008 38005 ft 455 kts 51°
2026-04-25 18:32 46.43875 12.05457 38026 ft 454 kts 51°
2026-04-25 18:33 46.47565 12.12895 38054 ft 453 kts 51°
2026-04-25 18:33 46.51234 12.20314 38061 ft 454 kts 51°
2026-04-25 18:34 46.54913 12.27769 38049 ft 453 kts 51°
2026-04-25 18:34 46.58581 12.35228 38065 ft 453 kts 51°
2026-04-25 18:35 46.62258 12.42715 38068 ft 456 kts 51°
2026-04-25 18:35 46.65946 12.50255 38049 ft 457 kts 52°
2026-04-25 18:36 46.69614 12.57770 38046 ft 457 kts 52°
2026-04-25 18:36 46.73358 12.65269 38042 ft 457 kts 50°
2026-04-25 18:37 46.77225 12.72664 38029 ft 458 kts 50°
2026-04-25 18:37 46.81079 12.80031 38036 ft 458 kts 50°
2026-04-25 18:38 46.84928 12.87458 38044 ft 457 kts 50°
2026-04-25 18:38 46.88734 12.94850 38042 ft 457 kts 51°
2026-04-25 18:39 46.92555 13.02298 38051 ft 456 kts 51°
2026-04-25 18:39 46.96342 13.09700 38054 ft 455 kts 51°
2026-04-25 18:40 47.00132 13.17125 38038 ft 454 kts 51°
2026-04-25 18:40 47.03912 13.24548 38046 ft 454 kts 51°
2026-04-25 18:41 47.07043 13.30717 37992 ft 452 kts 51°
2026-04-25 18:41 47.11411 13.39332 38072 ft 452 kts 51°
2026-04-25 18:42 47.13899 13.44259 38055 ft 453 kts 51°
2026-04-25 18:42 47.18305 13.53005 38062 ft 455 kts 51°
2026-04-25 18:43 47.22062 13.60481 38062 ft 458 kts 51°
2026-04-25 18:43 47.25853 13.68045 38070 ft 461 kts 51°
2026-04-25 18:44 47.29649 13.75642 38057 ft 462 kts 51°
2026-04-25 18:44 47.33446 13.83263 38050 ft 458 kts 51°
2026-04-25 18:45 47.37190 13.90799 38059 ft 453 kts 51°
2026-04-25 18:45 47.40873 13.98229 38069 ft 452 kts 51°
2026-04-25 18:46 47.44585 14.05737 38063 ft 451 kts 51°
2026-04-25 18:46 47.48268 14.13206 38052 ft 452 kts 51°
2026-04-25 18:47 47.51976 14.20749 38054 ft 452 kts 51°
2026-04-25 18:47 47.55676 14.28296 38059 ft 453 kts 51°
2026-04-25 18:48 47.59365 14.35840 38050 ft 454 kts 51°
2026-04-25 18:48 47.63073 14.43445 38044 ft 455 kts 51°
2026-04-25 18:49 47.66767 14.51042 38038 ft 456 kts 51°
2026-04-25 18:49 47.70497 14.58734 38051 ft 457 kts 51°
2026-04-25 18:50 47.74198 14.66389 38060 ft 458 kts 51°
2026-04-25 18:50 47.77915 14.74097 38036 ft 459 kts 51°
2026-04-25 18:51 47.81015 14.80545 38050 ft 459 kts 51°
2026-04-25 18:51 47.85342 14.89567 38049 ft 460 kts 51°
2026-04-25 18:52 47.89030 14.97296 38045 ft 460 kts 51°
2026-04-25 18:52 47.92749 15.05088 38036 ft 460 kts 51°
2026-04-25 18:53 47.96439 15.12844 38043 ft 461 kts 51°
2026-04-25 18:53 48.00150 15.20673 38034 ft 461 kts 51°
2026-04-25 18:54 48.05698 15.32421 38019 ft 461 kts 51°
2026-04-25 18:55 48.09373 15.40230 38019 ft 460 kts 51°
2026-04-25 18:55 48.13063 15.48093 38009 ft 460 kts 51°
2026-04-25 18:56 48.16721 15.55910 38000 ft 460 kts 51°
2026-04-25 18:56 48.20386 15.63766 38001 ft 459 kts 51°
2026-04-25 18:57 48.24023 15.71583 37995 ft 459 kts 51°
2026-04-25 18:57 48.27671 15.79448 37981 ft 458 kts 51°
2026-04-25 18:58 48.31287 15.87264 37980 ft 458 kts 51°
2026-04-25 18:58 48.32837 15.90420 38154 ft 452 kts 47°
2026-04-25 18:58 48.34724 15.94237 37652 ft 454 kts 51°
2026-04-25 18:59 48.38166 16.01916 37150 ft 433 kts 52°
2026-04-25 18:59 48.41474 16.09351 36627 ft 428 kts 51°
2026-04-25 19:00 48.44825 16.16743 36128 ft 427 kts 51°
2026-04-25 19:00 48.46506 16.20430 35886 ft 427 kts 51°
2026-04-25 19:01 48.49884 16.27835 35404 ft 429 kts 51°
2026-04-25 19:01 48.51581 16.31563 35155 ft 431 kts 51°
2026-04-25 19:01 48.53280 16.35302 34918 ft 432 kts 51°
2026-04-25 19:01 48.54958 16.39001 34679 ft 433 kts 51°
2026-04-25 19:02 48.58369 16.46540 34215 ft 435 kts 51°
2026-04-25 19:02 48.60075 16.50319 33982 ft 435 kts 51°
2026-04-25 19:02 48.61784 16.54111 33722 ft 436 kts 51°
2026-04-25 19:03 48.64047 16.59137 33361 ft 436 kts 51°
2026-04-25 19:03 48.66890 16.65468 32993 ft 437 kts 51°
2026-04-25 19:03 48.68602 16.69285 32963 ft 438 kts 51°
2026-04-25 19:04 48.73744 16.80667 32941 ft 436 kts 49°
2026-04-25 19:05 48.81227 16.95019 32946 ft 433 kts 46°
2026-04-25 19:06 48.84956 17.02135 32950 ft 433 kts 47°
2026-04-25 19:06 48.90553 17.12956 32953 ft 433 kts 47°
2026-04-25 19:07 48.96108 17.23770 32959 ft 434 kts 47°
2026-04-25 19:08 49.01690 17.34681 32958 ft 435 kts 47°
2026-04-25 19:09 49.08486 17.48021 32957 ft 436 kts 47°
2026-04-25 19:10 49.14608 17.60110 32880 ft 423 kts 47°
2026-04-25 19:10 49.16412 17.63678 32596 ft 424 kts 47°
2026-04-25 19:10 49.18196 17.67211 32347 ft 421 kts 47°
2026-04-25 19:10 49.19982 17.70753 32088 ft 419 kts 47°
2026-04-25 19:11 49.21762 17.74287 31828 ft 417 kts 47°
2026-04-25 19:11 49.23534 17.77812 31583 ft 415 kts 47°
2026-04-25 19:11 49.25267 17.81262 31335 ft 414 kts 47°
2026-04-25 19:11 49.27019 17.84756 31075 ft 409 kts 47°
2026-04-25 19:12 49.28737 17.88190 30772 ft 403 kts 47°
2026-04-25 19:12 49.30437 17.91593 30419 ft 398 kts 47°
2026-04-25 19:12 49.32092 17.94908 30082 ft 394 kts 47°
2026-04-25 19:12 49.33750 17.98231 29696 ft 389 kts 47°
2026-04-25 19:13 49.35382 18.01506 29321 ft 384 kts 47°
2026-04-25 19:13 49.36994 18.04747 28953 ft 378 kts 47°
2026-04-25 19:13 49.38582 18.07941 28630 ft 374 kts 46°
2026-04-25 19:13 49.40133 18.11063 28257 ft 370 kts 46°
2026-04-25 19:14 49.41698 18.14214 27939 ft 373 kts 46°
2026-04-25 19:14 49.42232 18.15288 27831 ft 377 kts 46°
2026-04-25 19:14 49.44948 18.20750 27230 ft 390 kts 47°
2026-04-25 19:14 49.46584 18.24066 26839 ft 386 kts 47°
2026-04-25 19:15 49.48195 18.27338 26464 ft 381 kts 47°
2026-04-25 19:15 49.49787 18.30579 26120 ft 376 kts 47°
2026-04-25 19:15 49.51340 18.33739 25763 ft 372 kts 47°
2026-04-25 19:15 49.52891 18.36895 25436 ft 367 kts 46°
2026-04-25 19:16 49.54426 18.40021 25089 ft 363 kts 46°
2026-04-25 19:16 49.55944 18.43114 24760 ft 359 kts 46°
2026-04-25 19:16 49.57445 18.46177 24423 ft 356 kts 46°
2026-04-25 19:16 49.58931 18.49211 24103 ft 352 kts 46°
2026-04-25 19:17 49.60397 18.52209 23777 ft 348 kts 46°
2026-04-25 19:17 49.61851 18.55184 23438 ft 347 kts 46°
2026-04-25 19:17 49.63282 18.58116 23072 ft 345 kts 46°
2026-04-25 19:17 49.64737 18.61097 22725 ft 349 kts 46°
2026-04-25 19:18 49.66222 18.64138 22401 ft 359 kts 47°
2026-04-25 19:18 49.67733 18.67243 22036 ft 360 kts 47°
2026-04-25 19:18 49.69394 18.70046 21639 ft 344 kts 28°
2026-04-25 19:18 49.71411 18.71677 21350 ft 323 kts
2026-04-25 19:19 49.73532 18.72788 20825 ft 330 kts 21°
2026-04-25 19:19 49.75304 18.75208 20188 ft 353 kts 51°
2026-04-25 19:19 49.76241 18.78768 19713 ft 364 kts 74°
2026-04-25 19:19 49.76411 18.80018 19613 ft 362 kts 73°
2026-04-25 19:20 49.77528 18.86199 18991 ft 356 kts 68°
2026-04-25 19:20 49.78297 18.89841 18606 ft 354 kts 67°
2026-04-25 19:20 49.79075 18.93447 18223 ft 352 kts 67°
2026-04-25 19:20 49.79849 18.97035 17802 ft 350 kts 67°
2026-04-25 19:21 49.80615 19.00614 17385 ft 348 kts 67°
2026-04-25 19:21 49.82106 19.07660 16604 ft 344 kts 68°
2026-04-25 19:21 49.82845 19.11181 16192 ft 343 kts 68°
2026-04-25 19:22 49.83579 19.14689 15792 ft 342 kts 68°
2026-04-25 19:22 49.84308 19.18184 15419 ft 340 kts 68°
2026-04-25 19:22 49.85786 19.25276 13899 ft 361 kts 68°
2026-04-25 19:23 49.86581 19.29087 12857 ft 377 kts 69°
2026-04-25 19:23 49.88176 19.36818 11752 ft 374 kts 69°
2026-04-25 19:23 49.88951 19.40608 11574 ft 362 kts 69°
2026-04-25 19:24 49.89700 19.44273 11449 ft 348 kts 69°
2026-04-25 19:24 49.90412 19.47761 11340 ft 335 kts 69°
2026-04-25 19:24 49.91776 19.54438 11054 ft 315 kts 68°
2026-04-25 19:25 49.93083 19.60829 10480 ft 308 kts 68°
2026-04-25 19:25 49.93727 19.63983 10151 ft 306 kts 68°
2026-04-25 19:25 49.94367 19.67130 9929 ft 300 kts 68°
2026-04-25 19:26 49.94967 19.70100 9947 ft 284 kts 68°
2026-04-25 19:26 49.95542 19.72949 9956 ft 269 kts 68°
2026-04-25 19:26 49.96096 19.75689 9973 ft 265 kts 68°
2026-04-25 19:26 49.96656 19.78446 9806 ft 270 kts 68°
2026-04-25 19:27 49.97229 19.81266 9429 ft 274 kts 68°
2026-04-25 19:27 49.97414 19.82183 9275 ft 276 kts 68°
2026-04-25 19:27 49.98384 19.86990 8653 ft 278 kts 69°
2026-04-25 19:27 49.98952 19.89820 8365 ft 276 kts 69°
2026-04-25 19:28 49.99521 19.92662 8067 ft 274 kts 68°
2026-04-25 19:28 50.00089 19.95500 7764 ft 274 kts 68°
2026-04-25 19:28 50.00654 19.98323 7450 ft 273 kts 69°
2026-04-25 19:28 50.01217 20.01143 7144 ft 272 kts 69°
2026-04-25 19:29 50.01764 20.03888 7005 ft 263 kts 68°
2026-04-25 19:29 50.02290 20.06539 6976 ft 251 kts 68°
2026-04-25 19:29 50.02806 20.09137 6718 ft 253 kts 68°
2026-04-25 19:29 50.03336 20.11795 6508 ft 263 kts 69°
2026-04-25 19:30 50.03785 20.14597 6288 ft 269 kts 74°
2026-04-25 19:30 50.04157 20.17434 6021 ft 266 kts 75°
2026-04-25 19:30 50.04400 20.19291 5842 ft 263 kts 72°
2026-04-25 19:30 50.05170 20.21764 5524 ft 247 kts 38°
2026-04-25 19:31 50.06536 20.23106 5287 ft 223 kts
2026-04-25 19:31 50.08467 20.23488 5050 ft 199 kts 345°
2026-04-25 19:31 50.09763 20.23150 5017 ft 183 kts 339°
2026-04-25 19:31 50.10596 20.22877 4990 ft 180 kts 339°
2026-04-25 19:32 50.11732 20.22291 4968 ft 166 kts 319°
2026-04-25 19:32 50.12522 20.21113 4962 ft 153 kts 296°
2026-04-25 19:32 50.12641 20.19541 5007 ft 150 kts 267°
2026-04-25 19:32 50.12627 20.18438 4989 ft 151 kts 274°
2026-04-25 19:33 50.12656 20.16274 4994 ft 151 kts 269°
2026-04-25 19:33 50.12580 20.14634 4983 ft 151 kts 269°
2026-04-25 19:33 50.12490 20.13024 4994 ft 150 kts 266°
2026-04-25 19:33 50.12338 20.11393 4819 ft 154 kts 264°
2026-04-25 19:34 50.12145 20.09779 4620 ft 151 kts 262°
2026-04-25 19:34 50.11932 20.08186 4407 ft 148 kts 262°
2026-04-25 19:34 50.11717 20.06624 4218 ft 146 kts 262°
2026-04-25 19:34 50.11500 20.05076 4026 ft 146 kts 262°
2026-04-25 19:35 50.11281 20.03518 3833 ft 147 kts 262°
2026-04-25 19:35 50.11060 20.01956 3616 ft 147 kts 262°
2026-04-25 19:35 50.10841 20.00403 3443 ft 147 kts 262°
2026-04-25 19:35 50.10625 19.98869 3245 ft 146 kts 262°
2026-04-25 19:36 50.10408 19.97335 3047 ft 144 kts 262°
2026-04-25 19:36 50.10193 19.95800 2856 ft 147 kts 262°
2026-04-25 19:36 50.09975 19.94242 2665 ft 148 kts 262°
2026-04-25 19:36 50.09754 19.92670 2456 ft 146 kts 262°
2026-04-25 19:37 50.09543 19.91178 2257 ft 138 kts 262°
2026-04-25 19:37 50.09340 19.89717 2080 ft 140 kts 262°
2026-04-25 19:37 50.09132 19.88231 1913 ft 139 kts 260°
2026-04-25 19:37 50.08925 19.86758 1708 ft 140 kts 260°
2026-04-25 19:38 50.08715 19.85243 1519 ft 144 kts 258°
2026-04-25 19:38 50.08511 19.83699 1342 ft 146 kts 258°
2026-04-25 19:38 50.08282 19.82173 1125 ft 144 kts 257°
2026-04-25 19:38 50.08079 19.80667 930 ft 143 kts 257°
2026-04-25 19:39 50.07868 19.79177 791 ft 132 kts 258°
2026-04-25 19:39 50.07721 19.78114 788 ft 71 kts 258°
2026-04-25 19:39 50.07622 19.77419 790 ft 60 kts 257°
2026-04-25 19:39 50.07561 19.76982 795 ft 21 kts 257°
2026-04-25 19:40 50.07473 19.76853 794 ft 19 kts 173°
2026-04-25 19:40 50.07339 19.76900 789 ft 20 kts 162°
2026-04-25 19:40 50.07324 19.77083 789 ft 19 kts 77°
2026-04-25 19:40 50.07352 19.77282 789 ft 19 kts 78°
2026-04-25 19:41 50.07381 19.77486 789 ft 21 kts 77°
2026-04-25 19:41 50.07415 19.77736 789 ft 26 kts 79°
2026-04-25 19:41 50.07457 19.78030 789 ft 28 kts 78°
2026-04-25 19:41 50.07484 19.78223 789 ft 27 kts 77°
2026-04-25 19:42 50.07534 19.78586 789 ft 25 kts 78°
2026-04-25 19:42 50.07571 19.78837 789 ft 23 kts 77°
2026-04-25 19:42 50.07604 19.79077 789 ft 22 kts 78°
2026-04-25 19:42 50.07636 19.79310 789 ft 22 kts 78°
2026-04-25 19:43 50.07668 19.79536 789 ft 21 kts 77°
2026-04-25 19:43 50.07663 19.79687 789 ft 13 kts 141°
2026-04-25 19:43 50.07577 19.79723 789 ft 13 kts 167°
2026-04-25 19:43 50.07492 19.79753 789 ft 12 kts 168°
2026-04-25 19:44 50.07408 19.79781 789 ft 13 kts 172°
2026-04-25 19:44 50.07333 19.79724 789 ft 10 kts 188°
2026-04-25 19:44 50.07296 19.79733 789 ft 1 kts 167°
2026-04-25 19:44 50.07291 19.79735 789 ft 0 kts 167°